Вернуться в каталог

NUSAT-39

TIKVAH ALPER

АктивенНаукаSSO
NORAD 56201·PAYLOAD·🇦🇷 Argentina

Запущен Apr 15, 2023 с Vandenberg Space Force Base

Loading…

Ближайшие Пролёты (ближайшие 24 часа)

TLE

СвежийSource: Space-Track

Эпоха: Sep 14, 2026, 14:11 UTC

1 56201U 23054Z   26257.59134888  .00027906  00000-0  48032-3 0  9990
2 56201  97.3029 168.4121 0006706  83.3208 276.8808 15.51035487192293

Отслеживайте NUSAT-39 в реальном времени с AllMySat

Download on the App Store